Location: George Washington National Forest Helicopter Landing Site
(38.6463°N, 79.0851°W)
Time: 04:12:46
(UTC-04:00)

Tiros 1 despin weight - Pass Details

Date: 20 August 2019
Orbit: 594 x 642 km, 48.2° (Epoch: 19 September)

Event Time Altitude Azimuth Distance (km) Brightness Sun altitude
Rises 03:56:37 0° 285° (WNW) 2,857 - -27.1°
Reaches altitude 10° 03:59:15 10° 299° (WNW) 1,962 - -26.8°
Exits shadow 04:01:32 21° 326° (NW) 1,386 ? -26.4°
Maximum altitude 04:02:58 25° 355° (N) 1,260 ? -26.2°
Drops below altitude 10° 04:06:45 10° 51° (NE) 1,989 ? -25.7°
Sets 04:09:26 0° 64° (ENE) 2,906 ? -25.3°
